Regional Weather Roundup
Issued by NWS

Home | Current Version | Previous Version | Graphics & Text | Print | Product List | Glossary On
Versions: 1 2 3 4 5 6 7 8 9 10 11 12 13 14 15 16 17 18 19 20 21 22 23 24 25 26 27 28 29 30 31 32 33 34 35 36 37 38 39 40 41 42 43 44 45 46 47 48 49 50
000
ASUS43 KLMK 252202
RWRKY
KENTUCKY REGIONAL WEATHER ROUNDUP
NATIONAL WEATHER SERVICE LOUISVILLE KY
600 PM EDT WED APR 25 2018

NOTE "FAIR" INDICATES FEW OR NO CLOUDS BELOW 12,000 FEET
WITH NO SIGNIFICANT WEATHER AND/OR OBSTRUCTIONS TO VISIBILITY.

KYZ001>023-026-027-061>063-070>075-252300-
WESTERN AND SOUTH CENTRAL KENTUCKY

CITY           SKY/WX    TMP DP  RH WIND       PRES   REMARKS
PADUCAH        FAIR      72  45  37 CALM      29.94F
HENDERSON      FAIR      68  51  54 N5        29.95F
OWENSBORO      FAIR      69  51  52 NW9       29.95F
HOPKINSVILLE   FAIR      69  50  51 NW6       29.95F
BOWLING GREEN  CLOUDY    67  52  58 NE5       29.95S
GLASGOW        NOT AVBL
$$

KYZ024-025-028>034-038-045-046-053-252300-
NORTH CENTRAL KENTUCKY

CITY           SKY/WX    TMP DP  RH WIND       PRES   REMARKS
LOUISVILLE/SDF PTSUNNY   68  47  46 N8        29.93F
LOUISVILLE/LOU FAIR      68  49  50 N8        29.94S
FORT KNOX      FAIR      67  46  46 N13       29.94F
$$

KYZ035>037-039>044-047>052-055>060-089>105-252300-
NORTHEAST KENTUCKY

CITY           SKY/WX    TMP DP  RH WIND       PRES   REMARKS
LEXINGTON      FAIR      65  48  54 N8        29.94F
COVINGTON      PTSUNNY   65  45  48 NW15      29.92S
FRANKFORT      FAIR      66  47  50 N6        29.92F
$$

KYZ054-064>069-076>088-106>120-252300-
SOUTHEAST KENTUCKY

CITY           SKY/WX    TMP DP  RH WIND       PRES   REMARKS
JACKSON        CLOUDY    56  50  80 VRB3      29.94R
LONDON         CLOUDY    58  50  75 NW6       29.95R
SOMERSET       NOT AVBL
MIDDLESBORO    RAIN      57  53  87 W3        29.95R
MONTICELLO     NOT AVBL
$$





USA.gov is the U.S. government's official web portal to all federal, state and local government web resources and services.